This demonstration page uses our WeatherBlox Daily Observations layout. Learn more.

Left ArrowRight Arrow

41.86663, -103.66717

Hourly Observations for July 8, 2020

Temp ( °F °C ) Dew Point ( °F °C ) Humidity (%) Winds ( mph kmh ) Pressure ( in mb ) Visibility ( mi km ) Precip ( " mm )
12:53 am 00:53 Clear 80 26.7 50 10 35 35 SSW 18 30 29.62 1003 10 16 N/A
1:36 am 01:36 Clear 77 25 52 11.1 42 42 NW 16 26 29.59 1002 10 16 N/A
1:53 am 01:53 Clear 78 25.6 51 10.6 39 39 W 6 9 29.66 1004 10 16 N/A
2:53 am 02:53 Clear 76 24.4 52 11.1 43 43 SW 7 11 29.65 1004 10 16 N/A
3:53 am 03:53 Clear 69 20.6 53 11.7 57 57 WNW 3 6 29.65 1004 10 16 N/A
4:53 am 04:53 Clear 60 15.6 53 11.7 78 78 W 3 6 29.73 1007 10 16 N/A
5:53 am 05:53 Sunny 61 16.1 52 11.1 72 72 undefined N/A 29.73 1007 10 16 N/A
6:53 am 06:53 Sunny 65 18.3 51 10.6 61 61 W 8 13 29.75 1007 10 16 N/A
7:53 am 07:53 Sunny 70 21.1 49 9.4 47 47 WNW 10 17 29.75 1007 10 16 N/A
8:53 am 08:53 Sunny 73 22.8 51 10.6 46 46 WNW 12 19 29.74 1007 10 16 N/A
9:53 am 09:53 Sunny 79 26.1 57 13.9 47 47 N 8 13 29.73 1007 10 16 N/A
10:53 am 10:53 Sunny 83 28.3 58 14.4 43 43 VRB 6 9 29.71 1006 10 16 N/A
11:53 am 11:53 Sunny 86 30 58 14.4 39 39 undefined N/A 29.71 1006 10 16 N/A
12:53 pm 12:53 Sunny 89 31.7 57 13.9 34 34 undefined N/A 29.69 1005 10 16 N/A
1:53 pm 13:53 Sunny 93 33.9 55 12.8 28 28 VRB 5 7 29.66 1004 10 16 N/A
2:53 pm 14:53 Sunny 91 32.8 50 10 25 25 S 7 11 29.66 1004 10 16 N/A
3:53 pm 15:53 Sunny 93 33.9 53 11.7 26 26 VRB 5 7 29.66 1004 10 16 N/A
4:53 pm 16:53 Sunny 93 33.9 51 10.6 24 24 SSE 13 20 29.67 1005 10 16 N/A
5:53 pm 17:53 Sunny 91 32.8 39 3.9 16 16 SSE 9 15 29.67 1005 10 16 N/A
6:53 pm 18:53 Sunny 89 31.7 40 4.4 18 18 undefined N/A 29.65 1004 10 16 N/A
7:53 pm 19:53 Sunny 83 28.3 41 5 23 23 SSE 7 11 29.65 1004 10 16 N/A
8:53 pm 20:53 Clear 72 22.2 50 10 46 46 undefined N/A 29.67 1005 10 16 N/A
9:53 pm 21:53 Clear 69 20.6 49 9.4 49 49 NNW 5 7 29.68 1005 10 16 N/A
10:53 pm 22:53 Clear 62 16.7 52 11.1 70 70 N 6 9 29.71 1006 10 16 N/A
11:53 pm 23:53 Clear 61 16.1 52 11.1 72 72 ESE 3 6 29.73 1007 10 16 N/A

Powered by AerisWeather